Regional Weather Roundup
Issued by NWS

Home | Current Version | Previous Version | Graphics & Text | Print | Product List | Glossary On
Versions: 1 2 3 4 5 6 7 8 9 10 11 12 13 14 15 16 17 18 19 20 21 22 23 24 25 26 27 28 29 30 31 32 33 34 35 36 37 38 39 40 41 42 43 44 45 46 47 48 49 50
000
ASUS43 KMKX 180121
RWRWI

WISCONSIN REGIONAL WEATHER ROUNDUP
NATIONAL WEATHER SERVICE MILWAUKEE/SULLIVAN WI
700 PM CST FRI NOV 17 2017

NOTE: "FAIR" INDICATES FEW OR NO CLOUDS BELOW 12,000 FEET WITH NO
SIGNIFICANT WEATHER AND/OR OBSTRUCTIONS TO VISIBILITY.

WIZ001-002-006>008-014>016-023>028-180200-
NORTHWEST WISCONSIN

CITY           SKY/WX    TMP DP  RH WIND       PRES   REMARKS
SUPERIOR ARPT  MOCLDY    32  32 100 CALM      29.68S FOG
ASHLAND        LGT SNOW  32  31  96 S3        29.68R FOG
HAYWARD        CLOUDY    33  32  96 CALM      29.65S FOG
SIREN          CLOUDY    34  34  99 N3        29.67R FOG
CUMBERLAND     FOG       32  32 100 CALM      29.64F VSB 1/2
RICE LAKE      FOG       34  34 100 CALM      29.66F VSB 1/2
CHETEK         CLOUDY    34  34 100 CALM      29.64F FOG
LADYSMITH      CLOUDY    34  34  99 NW3       29.66S FOG
EAU CLAIRE     CLOUDY    36  35  96 CALM      29.63S FOG
MENOMONIE      CLOUDY    36  36 100 NW3       29.65R FOG
NEW RICHMOND   CLOUDY    35  35  99 CALM      29.65R FOG
OSCEOLA        CLOUDY    36  36 100 CALM      29.68R FOG
$$

WIZ003>005-009-010-017-018-180200-
NORTH CENTRAL WISCONSIN

CITY           SKY/WX    TMP DP  RH WIND       PRES   REMARKS
MANITOWISH WTR LGT SNOW  32  32 100 CALM      29.63R
ARBOR VITAE    LGT SNOW  34  33  96 CALM      29.62R
WOODRUFF       LGT SNOW  34  33  96 CALM      29.62R
RHINELANDER    LGT RAIN  33  33 100 W5        29.62S FOG     WCI  29
EAGLE RIVER    LGT SNOW  32  32 100 CALM      29.62R
LAND O LAKES   SNOW      33  33 100 CALM      29.63F VSB 1/2
PHILLIPS       CLOUDY    32  32 100 CALM      29.63S FOG
TOMAHAWK       DRIZZLE   32  31  97 CALM      29.63R
MEDFORD        RAIN      32  32 100 CALM      29.62R
MERRILL        RAIN      33  33 100 CALM      29.64R
$$

WIZ029-030-035-036-043>047-180200-
CENTRAL WISCONSIN

CITY           SKY/WX    TMP DP  RH WIND       PRES   REMARKS
WAUSAU         CLOUDY    34  34 100 CALM      29.62R FOG
MOSINEE        CLOUDY    34  34 100 CALM      29.63R FOG
MARSHFIELD     LGT RAIN  34  33  96 CALM      29.61R FOG
STEVENS POINT  DRIZZLE   33  33 100 CALM      29.63R
WAUPACA        RAIN      38  37  94 CALM      29.62F
WAUTOMA        CLOUDY    36  36 100 CALM      29.62F FOG
WISC RAPIDS    CLOUDY    36  36 100 CALM      29.63S FOG
CAMP DOUGLAS   MOCLDY    36  36  99 CALM      29.61S FOG
$$

WIZ011>013-019>022-031-037>040-048>050-180200-
NORTHEAST WISCONSIN

CITY           SKY/WX    TMP DP  RH WIND       PRES   REMARKS
ANTIGO         CLOUDY    32  32 100 CALM      29.62R FOG
SHAWANO        LGT RAIN  38  36  93 CALM      29.62F
OCONTO         CLOUDY    37  37  98 CALM      29.64F
STURGEON BAY   LGT RAIN  39  37  93 SW7       29.65F FOG     WCI  34
GREEN BAY      LGT RAIN  38  38 100 CALM      29.64F FOG
MANITOWOC      LGT RAIN  40  39  97 S7        29.65S FOG
APPLETON       LGT RAIN  37  37 100 CALM      29.62F
CLINTONVILLE   DRIZZLE   36  36 100 SE3       29.62F
OSHKOSH        LGT RAIN  38  37  97 CALM      29.62F FOG
$$

WIZ032>034-041-042-053>061-180200-
SOUTHWEST WISCONSIN

CITY           SKY/WX    TMP DP  RH WIND       PRES   REMARKS
LA CROSSE      CLOUDY    39  38  96 N3        29.61F
SPARTA         CLOUDY    35  35 100 CALM      29.63S FOG
VIROQUA        CLOUDY    36  36 100 SE3       29.59S
BOSCOBEL       CLOUDY    39  38  96 CALM      29.61F FOG
PRAIRIE DU CHI CLOUDY    38  37  97 CALM      29.60F FOG
PLATTEVILLE    CLOUDY    40  40 100 S5        29.60S
$$

WIZ056-057-062-063-064-067-068-180200-
SOUTH CENTRAL WISCONSIN

CITY           SKY/WX    TMP DP  RH WIND       PRES   REMARKS
REEDSBURG      CLOUDY    36  36 100 CALM      29.61F FOG
BARABOO/DELLS  DRIZZLE   36  36  97 CALM      29.61F
LONE ROCK      LGT RAIN  39  39 100 CALM      29.62S FOG
MINERAL POINT  LGT RAIN  39  39 100 CALM      29.60S
MADISON        LGT RAIN  39  38  96 S5        29.61F FOG
MIDDLETON      CLOUDY    39  39 100 SW3       29.62S
WATERTOWN      CLOUDY    39  39 100 S9        29.61F WCI  33
MONROE         DRIZZLE   37  37 100 S10       29.59F WCI  30
JANESVILLE     RAIN      41  41 100 S10G16    29.61F
$$

WIZ051-052-058>065-066-070>072-180200-
SOUTHEAST WISCONSIN

CITY           SKY/WX    TMP DP  RH WIND       PRES   REMARKS
MILWAUKEE      LGT RAIN  42  40  92 S12       29.63F FOG
WAUKESHA       LGT RAIN  37  37 100 S9        29.63F FOG     WCI  31
MILWAUKEE/TIMM RAIN      39  36  87 S8        29.64F VSB 1   WCI  34
RACINE         LGT RAIN  43  40  89 S12       29.64F FOG
BURLINGTON     MIX PCPN  42  42 100 S9        29.62F
KENOSHA        RAIN      42  39  89 S9G20     29.62F FOG
FOND DU LAC    HVY RAIN  40  37  89 CALM      29.63R FOG
SHEBOYGAN      RAIN      40  40 100 S12       29.62F FOG     WCI  33
WEST BEND      HVY RAIN  37  37 100 S7        29.61F WCI  32
JUNEAU         CLOUDY    38  37  97 S7        29.63S VSB 1   WCI  33
$$

LSZ147-162-180200-
LAKE SUPERIOR

STATION/POSITION TIME  TEMP    WIND        PRES    WAVE
                       AIR SEA DIR/SP/G            HT/PER
                 (UTC) (F)     (DEG/KT/KT) (MB)    (FT/S)
DEVILS ISLAND    0100   37     250/  9/ 11 1004.9S
SAXON HARBOR     0040   34     190/  4/  5 1004.4S
$$

LMZ867-665-643>646-180200-
LAKE MICHIGAN

STATION/POSITION TIME  TEMP    WIND        PRES    WAVE
                       AIR SEA DIR/SP/G            HT/PER
                 (UTC) (F)     (DEG/KT/KT) (MB)    (FT/S)
N MID LAKE BUOY  0050   43 48  180/ 21/ 23 1005.3F   9/ 8
NORTHPORT PIER   0040   41     210/  4/ 10 1004.7F
SHEBOYGAN LAKESH 0100   41     200/ 17/ 20 1003.5F
PORT WASHINGTON  0043   41     180/ 10/ 18 1004.4F
MILWAUKEE LAKESH 0050   42     180/  8/ 10   N/A
S MID LAKE BUOY  0050   47 50  150/ 25/ 29 1004.3F   7/ 6
KENOSHA   LAKESH 0100   42     180/ 15/ 21 1003.4
$$

TC  - TEMPERATURE IN CELSIUS
VSB - VISIBILITY IN STATUTE MILES
WCI - WIND CHILL INDEX
HX  - HEAT INDEX





USA.gov is the U.S. government's official web portal to all federal, state and local government web resources and services.